{"data":{"norad_id":52687,"intl_designator":"2022-053AH","name":"STARLINK-3981","alt_names":[],"object_type":"PAYLOAD","status":"ACTIVE","operator":null,"country":"US","launch_date":"2022-05-18","launch_site_code":"AFETR","launch_vehicle":null,"mission":null,"orbit_class":"UNKNOWN","rcs_meters":null,"size_class":null,"mass_kg":null,"dimensions":null,"purposes":["comms"],"wikipedia_slug":null,"has_3d_model":false,"image_url":null,"decayed_at":null,"tle_current":{"epoch":"2026-09-20T04:00:03.000096Z","epoch_age_seconds":95253,"freshness":"FRESH","line1":"1 52687U 22053AH  26263.16670139  .00093752  00000+0  31053-2 0  9991","line2":"2 52687  53.1612 348.7061 0000888 126.0527 183.2504 15.30536600  5832","mean_motion":15.305366,"eccentricity":8.88e-5,"inclination_deg":53.1612,"raan_deg":348.7061,"arg_perigee_deg":126.0527,"mean_anomaly_deg":183.2504,"bstar":0.0031053,"rev_number":583,"period_min":94.084649788839,"perigee_km":473.60173825299,"apogee_km":474.81871512045,"semimajor_km":6852.3472266867,"source":"CELESTRAK","updated_at":"2026-09-20T09:00:40.106278Z"}}}